Ladysmith, WI

2:33 AM CDT on June 26, 2017 (GMT -0500)
Rusk County

Weather History for KRCX - March, 2013

Change the Weather History Date:

Monday, March 25, 2013

  Actual Average (KPBH) Record (KPBH)
Temperature  
Mean Temperature 26 °F -  
Max Temperature 33 °F 39 °F 71 °F (2007)
Min Temperature 19 °F 21 °F -5 °F (2002)
Degree Days  
Heating Degree Days 39    
Moisture  
Dew Point 21 °F    
Average Humidity 76    
Maximum Humidity 93    
Minimum Humidity 60    
Precipitation  
Precipitation 0.00 in - - ()
Sea Level Pressure  
Sea Level Pressure 30.06 in    
Wind  
Wind Speed 10 mph (North)    
Max Wind Speed 18 mph    
Max Gust Speed 24 mph    
Visibility 10 miles    
Events      
Averages and records for this station are not official NWS values.
T = Trace of Precipitation, MM = Missing Value Source: NWS Daily Summary

Daily Weather History Graph

Daily Weather History Graph

Search for Another Location

Airport or City:

Trip Planner

Search our weather history database for the weather conditions in past years. The results will help you decide how hot, cold, wet, or windy it might be!

Date:

Astronomy

Mar. 25, 2013 Rise Set
Actual Time 6:57 AM CDT 7:23 PM CDT
Civil Twilight 6:27 AM CDT 7:53 PM CDT
Nautical Twilight 5:52 AM CDT 8:28 PM CDT
Astronomical Twilight 5:16 AM CDT 9:04 PM CDT
Moon 5:52 PM CDT (3/25) 5:44 AM CDT (3/25)
Length of Visible Light 13h 25m
Length of Day
12h 26m
Waxing Gibbous, 96% of the Moon is Illuminated
Mar 25
Waxing Gibbous
Mar 27
Full
Apr 2
Last Quarter
Apr 10
New
Apr 18
First Quarter

Hourly Weather History & Observations

Time (CDT) Temp. Windchill Dew Point Humidity Pressure Visibility Wind Dir Wind Speed Gust Speed Precip Events Conditions
12:15 AM 23.0 °F 13.9 °F 17.6 °F 80% 30.00 in 10.0 mi North 8.1 mph - N/A   Clear
12:35 AM 23.0 °F 13.1 °F 17.6 °F 80% 30.00 in 10.0 mi North 9.2 mph - N/A   Clear
12:55 AM 23.0 °F 13.1 °F 17.6 °F 80% 29.99 in 10.0 mi North 9.2 mph - N/A   Clear
1:15 AM 21.2 °F 11.7 °F 17.6 °F 86% 29.99 in 10.0 mi North 8.1 mph - N/A   Clear
1:35 AM 21.2 °F 10.1 °F 17.6 °F 86% 29.99 in 10.0 mi North 10.4 mph - N/A   Clear
1:55 AM 21.2 °F 10.1 °F 17.6 °F 86% 29.99 in 10.0 mi North 10.4 mph - N/A   Clear
2:15 AM 21.2 °F 10.1 °F 17.6 °F 86% 29.98 in 10.0 mi North 10.4 mph - N/A   Clear
2:35 AM 21.2 °F 10.1 °F 17.6 °F 86% 29.98 in 10.0 mi North 10.4 mph - N/A   Clear
2:55 AM 21.2 °F 9.5 °F 17.6 °F 86% 29.98 in 10.0 mi North 11.5 mph - N/A   Clear
3:15 AM 21.2 °F 10.1 °F 17.6 °F 86% 29.98 in 10.0 mi North 10.4 mph - N/A   Clear
3:35 AM 21.2 °F 10.9 °F 17.6 °F 86% 29.98 in 10.0 mi North 9.2 mph - N/A   Clear
3:55 AM 19.4 °F 7.2 °F 17.6 °F 93% 29.97 in 10.0 mi North 11.5 mph - N/A   Clear
4:15 AM 19.4 °F 7.9 °F 17.6 °F 93% 29.97 in 10.0 mi North 10.4 mph - N/A   Clear
4:35 AM 19.4 °F 7.9 °F 17.6 °F 93% 29.97 in 10.0 mi North 10.4 mph - N/A   Clear
5:15 AM 19.4 °F 7.9 °F 17.6 °F 93% 29.98 in 10.0 mi NNW 10.4 mph - N/A   Clear
5:35 AM 19.4 °F 8.6 °F 17.6 °F 93% 29.98 in 10.0 mi NNW 9.2 mph - N/A   Clear
5:55 AM 19.4 °F 8.6 °F 15.8 °F 86% 29.98 in 10.0 mi NNW 9.2 mph - N/A   Clear
6:15 AM 19.4 °F 7.9 °F 15.8 °F 86% 29.99 in 10.0 mi North 10.4 mph - N/A   Clear
6:35 AM 19.4 °F 8.6 °F 15.8 °F 86% 29.99 in 10.0 mi North 9.2 mph - N/A   Clear
7:15 AM 19.4 °F 9.5 °F 15.8 °F 86% 30.00 in 10.0 mi North 8.1 mph - N/A   Clear
7:35 AM 19.4 °F 7.9 °F 15.8 °F 86% 30.00 in 10.0 mi NNW 10.4 mph - N/A   Clear
7:55 AM 19.4 °F 8.6 °F 17.6 °F 93% 30.01 in 10.0 mi North 9.2 mph - N/A   Mostly Cloudy
8:15 AM 23.0 °F 12.4 °F 19.4 °F 86% 30.02 in 10.0 mi North 10.4 mph - N/A   Overcast
8:35 AM 23.0 °F 13.1 °F 21.2 °F 93% 30.03 in 10.0 mi North 9.2 mph - N/A   Overcast
8:55 AM 26.6 °F 16.8 °F 21.2 °F 80% 30.03 in 10.0 mi North 10.4 mph - N/A   Overcast
9:15 AM 26.6 °F 16.8 °F 23.0 °F 86% 30.04 in 10.0 mi North 10.4 mph 17.3 mph N/A   Overcast
9:35 AM 28.4 °F 19.7 °F 23.0 °F 80% 30.04 in 10.0 mi North 9.2 mph - N/A   Overcast
9:55 AM 28.4 °F 19.1 °F 23.0 °F 80% 30.04 in 10.0 mi North 10.4 mph - N/A   Overcast
10:15 AM 28.4 °F 19.1 °F 23.0 °F 80% 30.04 in 10.0 mi North 10.4 mph - N/A   Overcast
10:35 AM 30.2 °F 20.8 °F 24.8 °F 80% 30.05 in 10.0 mi NNW 11.5 mph 16.1 mph N/A   Overcast
10:55 AM 30.2 °F 21.9 °F 24.8 °F 80% 30.05 in 10.0 mi North 9.2 mph - N/A   Overcast
11:15 AM 30.2 °F 21.3 °F 24.8 °F 80% 30.05 in 10.0 mi North 10.4 mph 17.3 mph N/A   Overcast
11:35 AM 30.2 °F 21.3 °F 24.8 °F 80% 30.05 in 10.0 mi North 10.4 mph - N/A   Overcast
11:55 AM 32.0 °F 22.1 °F 24.8 °F 75% 30.05 in 10.0 mi NNW 13.8 mph - N/A   Overcast
12:15 PM 32.0 °F 22.1 °F 23.0 °F 69% 30.05 in 10.0 mi North 13.8 mph 18.4 mph N/A   Overcast
12:35 PM 32.0 °F 22.5 °F 23.0 °F 69% 30.06 in 10.0 mi North 12.7 mph - N/A   Overcast
12:55 PM 32.0 °F 22.1 °F 23.0 °F 69% 30.06 in 10.0 mi North 13.8 mph - N/A   Overcast
1:15 PM 32.0 °F 21.6 °F 23.0 °F 69% 30.06 in 10.0 mi North 15.0 mph - N/A   Overcast
1:35 PM 32.0 °F 21.6 °F 23.0 °F 69% 30.06 in 10.0 mi North 15.0 mph 19.6 mph N/A   Overcast
1:55 PM 32.0 °F 21.2 °F 23.0 °F 69% 30.06 in 10.0 mi NNW 16.1 mph - N/A   Overcast
2:15 PM 32.0 °F 22.5 °F 23.0 °F 69% 30.06 in 10.0 mi NNW 12.7 mph 20.7 mph N/A   Overcast
2:35 PM 32.0 °F 21.6 °F 23.0 °F 69% 30.06 in 10.0 mi NNW 15.0 mph - N/A   Overcast
3:15 PM 32.0 °F 22.5 °F 21.2 °F 64% 30.06 in 10.0 mi NNW 12.7 mph 21.9 mph N/A   Overcast
3:35 PM 32.0 °F 21.6 °F 21.2 °F 64% 30.06 in 10.0 mi NNW 15.0 mph - N/A   Overcast
3:55 PM 33.8 °F 25.8 °F 21.2 °F 60% 30.06 in 10.0 mi North 10.4 mph 18.4 mph N/A   Overcast
4:15 PM 33.8 °F 24.3 °F 21.2 °F 60% 30.06 in 10.0 mi NNW 13.8 mph - N/A   Overcast
4:35 PM 33.8 °F 24.3 °F 21.2 °F 60% 30.07 in 10.0 mi North 13.8 mph - N/A   Overcast
4:55 PM 33.8 °F 22.8 °F 21.2 °F 60% 30.08 in 10.0 mi North 18.4 mph 24.2 mph N/A   Overcast
5:15 PM 32.0 °F 22.1 °F 21.2 °F 64% 30.09 in 10.0 mi North 13.8 mph 24.2 mph N/A   Overcast
5:35 PM 32.0 °F 21.6 °F 21.2 °F 64% 30.09 in 10.0 mi North 15.0 mph 20.7 mph N/A   Overcast
5:55 PM 32.0 °F 22.5 °F 21.2 °F 64% 30.10 in 10.0 mi North 12.7 mph 16.1 mph N/A   Overcast
6:15 PM 32.0 °F 23.6 °F 21.2 °F 64% 30.11 in 10.0 mi North 10.4 mph 17.3 mph N/A   Overcast
6:35 PM 32.0 °F 22.5 °F 21.2 °F 64% 30.11 in 10.0 mi North 12.7 mph - N/A   Overcast
7:15 PM 32.0 °F 23.6 °F 21.2 °F 64% 30.12 in 10.0 mi North 10.4 mph - N/A   Overcast
7:35 PM 32.0 °F 26.4 °F 23.0 °F 69% 30.13 in 10.0 mi North 5.8 mph - N/A   Overcast
7:55 PM 32.0 °F 24.2 °F 23.0 °F 69% 30.14 in 10.0 mi North 9.2 mph - N/A   Overcast
8:15 PM 32.0 °F 24.2 °F 23.0 °F 69% 30.14 in 10.0 mi North 9.2 mph - N/A   Overcast
8:35 PM 32.0 °F 25.6 °F 23.0 °F 69% 30.15 in 10.0 mi North 6.9 mph - N/A   Overcast
8:55 PM 32.0 °F 26.4 °F 23.0 °F 69% 30.15 in 10.0 mi NNW 5.8 mph - N/A   Overcast
9:15 PM 32.0 °F 24.8 °F 23.0 °F 69% 30.15 in 10.0 mi NNW 8.1 mph - N/A   Overcast
9:35 PM 32.0 °F 24.8 °F 23.0 °F 69% 30.16 in 10.0 mi North 8.1 mph - N/A   Overcast
9:55 PM 32.0 °F 24.2 °F 23.0 °F 69% 30.16 in 10.0 mi North 9.2 mph - N/A   Overcast
10:15 PM 32.0 °F 23.6 °F 23.0 °F 69% 30.17 in 10.0 mi North 10.4 mph - N/A   Overcast
10:35 PM 32.0 °F 24.2 °F 23.0 °F 69% 30.16 in 10.0 mi North 9.2 mph - N/A   Overcast
10:55 PM 32.0 °F 23.6 °F 21.2 °F 64% 30.17 in 10.0 mi North 10.4 mph - N/A   Overcast
11:15 PM 30.2 °F 23.4 °F 21.2 °F 69% 30.16 in 10.0 mi North 6.9 mph - N/A   Overcast
11:35 PM 30.2 °F 24.3 °F 21.2 °F 69% 30.17 in 10.0 mi North 5.8 mph - N/A   Overcast
11:55 PM 30.2 °F 23.4 °F 21.2 °F 69% 30.17 in 10.0 mi North 6.9 mph - N/A   Overcast